[[{"header":{"parameterUnit":"m.s-1","parameterCategory":1,"la1":30.2991,"la2":30.254,"lo1":-89.0895,"lo2":-89.0444,"dx":0.0017,"dy":0.0017,"nx":28,"ny":28,"refTime":"2022-11-12T09:00:00:Z","depth":0,"parameterNumber":2,"parameterNumberName":"U-component_of_WINDS"},"data":[0,0,0,0,0,0,0,0,0,0,0,0,0,0,0,0,0,0,0,0,0,0,0,0,0,0,0,0,0,0,0,0,0,0,0,0,0,0,0,0,0,0,0,0,0,0,0,0,0,0,0,0,0,0,0,0,0,0,-4.1717,-4.1718,0,-4.1786,-4.1786,-4.1787,-4.1677,-4.1673,-4.1669,-4.1666,-4.1735,-4.174,-4.1745,0,0,0,0,0,0,0,0,0,0,0,0,0,-4.1487,-4.1492,-4.1717,-4.1718,-4.1718,-4.1785,-4.1786,-4.1787,-4.1678,-4.1673,-4.1668,-4.1664,-4.1733,-4.1739,-4.1746,0,0,0,0,0,0,0,0,0,0,0,0,0,-4.1575,-4.1494,-4.1717,-4.1672,-4.1668,-4.1785,-4.1786,-4.1788,-4.1679,-4.1673,-4.1667,-4.1662,-4.1731,-4.1739,-4.1747,-4.191,0,0,-4.1771,-4.1775,0,0,0,0,0,0,0,0,-4.157,-4.1583,-4.1678,-4.1675,-4.1672,-4.1717,-4.173,-4.1828,-4.168,-4.1675,-4.1666,-4.1659,-4.1733,-4.1741,-4.1766,-4.1913,-4.1916,-4.1772,-4.1777,-4.178,-4.1782,0,0,0,0,0,0,0,-4.1564,-4.1579,-4.1744,-4.1679,-4.1675,-4.1647,-4.1653,-4.1749,-4.1735,-4.1675,-4.1667,-4.1677,-4.173,-4.1759,-4.1767,-4.1917,-4.1772,-4.1779,-4.1784,-4.1787,-4.2199,-4.2205,0,0,0,0,0,0,-4.1564,-4.1575,-4.1742,-4.1746,-4.1606,-4.1656,-4.1663,-4.1708,-4.1734,-4.1732,-4.1681,-4.1671,-4.1748,-4.1758,-4.1769,-4.196,-4.178,-4.1788,-4.1792,-4.2193,-4.22,-4.2207,0,0,0,0,0,0,-4.1559,-4.158,-4.1739,-4.1658,-4.1677,-4.1666,-4.1718,-4.1712,-4.174,-4.1739,-4.1735,-4.1713,-4.1744,-4.1758,-4.1875,-4.1961,-4.1791,-4.1799,-4.2186,-4.2195,-4.2203,-4.2346,0,0,0,0,0,0,-4.1553,-4.1579,-4.1641,-4.1661,-4.1681,-4.1846,-4.1723,-4.1718,-4.1755,-4.1742,-4.1767,-4.1766,-4.174,-4.1864,-4.1883,-4.1969,-4.1805,-4.2178,-4.219,-4.2201,-4.2333,-4.2358,-4.238,0,0,0,0,0,-4.1545,-4.1679,-4.1645,-4.1666,-4.176,-4.1851,-4.1862,-4.183,-4.1762,-4.1824,-4.1823,-4.1765,-4.1949,-4.1877,-4.1898,-4.1987,-4.2172,-4.2186,-4.22,-4.2323,-4.2353,-4.238,0,0,0,0,0,0,-4.167,-4.1681,-4.1643,-4.1787,-4.1819,-4.1832,-4.191,-4.1864,-4.1916,-4.1902,-4.1859,-4.1866,-4.1992,-4.2001,-4.1921,-4.2145,-4.2049,-4.2067,-4.2135,-4.2164,-4.2187,-4.2182,-4.1812,0,0,0,0,0,-4.1714,-4.1788,-4.1793,-4.1919,-4.1937,-4.1921,-4.196,-4.1932,-4.1963,-4.1975,-4.1983,-4.2014,-4.2078,-4.2122,-4.2181,-4.2334,-4.2337,-4.2405,-4.2429,-4.2448,-4.2465,-4.2544,-4.2574,-4.2252,-4.2252,-4.2252,0,0,-4.1806,-4.1821,-4.187,-4.1945,-4.1966,-4.2042,-4.1933,-4.2019,-4.2074,-4.1988,-4.21,-4.2106,-4.2138,-4.2274,-4.2333,-4.2285,-4.2554,-4.2466,-4.2481,-4.2487,-4.2562,-4.2592,-4.2619,-4.2261,-4.226,-4.2258,0,0,-4.2013,-4.2032,-4.2139,-4.2162,-4.2196,-4.2184,-4.221,-4.2229,-4.223,-4.2341,-4.2278,-4.2343,-4.2455,-4.248,-4.2508,-4.2722,-4.267,-4.2742,-4.2865,-4.2943,-4.2969,-4.2991,-4.3066,-4.3094,-4.2759,-4.2759,-4.2759,0,-4.2123,-4.2236,-4.22,-4.2289,-4.2323,-4.2249,-4.2355,-4.238,-4.2431,-4.2455,-4.24,-4.2539,-4.2555,-4.2694,-4.2747,-4.2772,-4.2799,-4.2739,-4.2968,-4.299,-4.301,-4.3081,-4.311,-4.2768,-4.2767,-4.2766,-4.2765,0,-4.2369,-4.2449,-4.2531,-4.2582,-4.2625,-4.2723,-4.27,-4.2748,-4.2716,-4.271,-4.2823,-4.2839,-4.29,-4.2931,-4.2901,-4.3066,-4.3035,-4.2975,-4.2877,-4.305,-4.3116,-4.3143,-4.278,-4.2777,-4.2774,-4.2772,0,0,-4.2657,-4.2686,-4.2717,-4.2738,-4.2769,-4.2829,-4.2923,-4.2982,-4.3023,-4.3061,-4.3137,-4.3233,-4.3177,-4.3209,-4.3181,-4.3249,-4.3416,-4.318,-4.318,-4.3223,-4.3597,-4.3642,-4.3674,-4.3382,-4.3387,-4.3391,-4.3594,0,-4.2862,-4.3025,-4.2994,-4.3152,-4.3224,-4.3153,-4.3234,-4.3261,-4.3258,-4.3317,-4.3312,-4.338,-4.3302,-4.332,-4.3385,-4.3382,-4.3491,-4.3367,-4.3452,-4.3455,-4.3446,-4.3709,-4.3757,-4.3947,-4.362,-4.3624,-4.3627,0,-4.3124,-4.3171,-4.3336,-4.3354,-4.3383,-4.3457,-4.3508,-4.3566,-4.3594,-4.3586,-4.3621,-4.3579,-4.367,-4.3571,-4.3696,-4.3613,-4.3645,-4.3649,-4.3656,-4.3662,-4.3552,-4.3721,-4.4008,-4.4036,-4.3668,-4.3665,-4.3662,0,-4.3316,-4.342,-4.3532,-4.3553,-4.3577,-4.363,-4.3642,-4.3665,-4.3702,-4.3747,-4.377,-4.3824,-4.3854,-4.3897,-4.387,-4.3801,-4.3999,-4.3898,-4.3994,-4.3995,-4.4039,-4.4036,-4.4334,-4.4061,-4.4061,-4.406,-4.406,0,-4.3548,-4.3652,-4.3619,-4.3688,-4.3801,-4.3764,-4.3877,-4.388,-4.3901,-4.3968,-4.391,-4.3975,-4.3936,-4.3997,-4.3977,-4.4082,-4.4096,-4.4091,-4.4085,-4.4097,-4.4097,-4.4117,-4.4103,-4.4068,-4.4066,-4.4065,-4.4063,0,-4.3782,-4.3764,-4.3882,-4.3894,-4.39,-4.3983,-4.3992,-4.4056,-4.4047,-4.4133,-4.4151,-4.4137,-4.4205,-4.4183,-4.4257,-4.4243,-4.4377,-4.4353,-4.4368,-4.4361,-4.4458,-4.4449,-4.4778,-4.4818,-4.4521,-4.4524,-4.4526,0,-4.3931,-4.4009,-4.403,-4.4071,-4.4087,-4.4154,-4.4192,-4.4157,-4.4198,-4.4235,-4.4294,-4.4357,-4.4406,-4.4518,-4.4514,-4.457,-4.4546,-4.4658,-4.4554,-4.4563,-4.4547,-4.4542,-4.4549,-4.4678,-4.4682,-4.4685,-4.4687,0,-4.4196,-4.4183,-4.424,-4.4294,-4.434,-4.4381,-4.4415,-4.4452,-4.4419,-4.4468,-4.4538,-4.4576,-4.465,-4.4713,-4.4763,-4.4774,-4.4725,-4.472,-4.4744,-4.4757,-4.4761,-4.4759,-4.4423,-4.4712,-4.471,-4.4708,-4.4706,-4.4705,-4.4392,-4.4457,-4.4482,-4.4546,-4.4569,-4.4602,-4.4662,-4.466,-4.4718,-4.4776,-4.4752,-4.4831,-4.4855,-4.4917,-4.4935,-4.4996,-4.4952,-4.4989,-4.4998,-4.5007,-4.5019,-4.4752,-4.5005,-4.5004,-4.5003,-4.5003,-4.5002,0,-4.4653,-4.4665,-4.4725,-4.4775,-4.4826,-4.4776,-4.4811,-4.4856,-4.4927,-4.4954,-4.5003,-4.5082,-4.5142,-4.5142,-4.5198,-4.5247,-4.5225,-4.5262,-4.5258,-4.5261,-4.5055,-4.5028,-4.5278,-4.5278,-4.5278,-4.5278,-4.5278,-4.5278,-4.4795,-4.4903,-4.4893,-4.501,-4.5021,-4.5099,-4.5123,-4.5153,-4.5174,-4.5265,-4.5315,-4.5315,-4.533,-4.5386,-4.5439,-4.5437,-4.546,-4.5505,-4.5495,-4.5303,-4.5276,-4.5249,-4.5223,-4.5511,-4.5511,-4.5695,-4.5697,-4.5698]},{"header":{"parameterUnit":"m.s-1","parameterCategory":1,"la1":30.2991,"la2":30.254,"lo1":-89.0895,"lo2":-89.0444,"dx":0.0017,"dy":0.0017,"nx":28,"ny":28,"refTime":"2022-11-12T09:00:00:Z","depth":0,"parameterNumber":3,"parameterNumberName":"V-component_of_WINDS"},"data":[0,0,0,0,0,0,0,0,0,0,0,0,0,0,0,0,0,0,0,0,0,0,0,0,0,0,0,0,0,0,0,0,0,0,0,0,0,0,0,0,0,0,0,0,0,0,0,0,0,0,0,0,0,0,0,0,0,0,-5.838,-5.838,0,-5.8459,-5.846,-5.8461,-5.8389,-5.8386,-5.8383,-5.838,-5.8455,-5.846,-5.8465,0,0,0,0,0,0,0,0,0,0,0,0,0,-5.8158,-5.8162,-5.8379,-5.8381,-5.8382,-5.8459,-5.846,-5.8461,-5.8389,-5.8385,-5.8382,-5.8379,-5.8454,-5.8459,-5.8465,0,0,0,0,0,0,0,0,0,0,0,0,0,-5.8247,-5.8164,-5.8379,-5.8355,-5.8354,-5.8459,-5.846,-5.8461,-5.839,-5.8385,-5.8381,-5.8377,-5.8452,-5.8459,-5.8466,-5.8597,0,0,-5.8488,-5.8491,0,0,0,0,0,0,0,0,-5.8242,-5.8255,-5.8358,-5.8357,-5.8356,-5.841,-5.8409,-5.8507,-5.8391,-5.8376,-5.838,-5.8375,-5.8443,-5.8451,-5.8475,-5.8601,-5.8604,-5.8488,-5.8493,-5.8496,-5.8498,0,0,0,0,0,0,0,-5.8236,-5.8252,-5.8411,-5.8359,-5.8358,-5.8338,-5.8346,-5.8427,-5.8433,-5.8377,-5.8372,-5.8383,-5.8442,-5.8469,-5.8476,-5.8605,-5.8488,-5.8494,-5.8499,-5.8501,-5.8839,-5.8843,0,0,0,0,0,0,-5.8233,-5.8247,-5.8408,-5.8413,-5.8287,-5.8345,-5.8354,-5.8396,-5.8432,-5.8433,-5.8386,-5.8379,-5.8459,-5.8468,-5.8479,-5.8632,-5.8496,-5.8502,-5.8506,-5.8834,-5.884,-5.8845,0,0,0,0,0,0,-5.8229,-5.8249,-5.8405,-5.8329,-5.8347,-5.8354,-5.8402,-5.84,-5.8427,-5.8439,-5.8439,-5.8413,-5.8455,-5.8469,-5.8568,-5.8634,-5.8505,-5.8512,-5.8828,-5.8836,-5.8842,-5.8942,0,0,0,0,0,0,-5.8223,-5.8247,-5.8299,-5.8331,-5.8352,-5.8495,-5.8406,-5.8405,-5.844,-5.8431,-5.8464,-5.8465,-5.8453,-5.8558,-5.8575,-5.8642,-5.8517,-5.8822,-5.8832,-5.884,-5.8933,-5.8952,-5.8968,0,0,0,0,0,-5.8215,-5.8324,-5.8302,-5.8322,-5.8417,-5.8499,-5.8511,-5.8497,-5.8446,-5.8496,-5.8504,-5.8464,-5.8625,-5.8569,-5.8587,-5.8657,-5.8818,-5.8829,-5.8839,-5.8925,-5.8948,-5.8968,0,0,0,0,0,0,-5.8298,-5.8327,-5.8304,-5.8426,-5.8461,-5.8487,-5.8551,-5.8522,-5.857,-5.856,-5.8538,-5.8546,-5.865,-5.8663,-5.8601,-5.8784,-5.8713,-5.8728,-5.8772,-5.8794,-5.8811,-5.8804,-5.8523,0,0,0,0,0,-5.8331,-5.8398,-5.8419,-5.8525,-5.8544,-5.8545,-5.858,-5.8566,-5.86,-5.8614,-5.8628,-5.8662,-5.8719,-5.8757,-5.8811,-5.8935,-5.8939,-5.8992,-5.9009,-5.9024,-5.9036,-5.91,-5.9123,-5.8879,-5.8879,-5.8879,0,0,-5.8399,-5.8423,-5.8467,-5.8542,-5.8567,-5.8634,-5.8557,-5.8632,-5.8681,-5.8624,-5.8719,-5.8731,-5.8766,-5.8878,-5.8927,-5.8892,-5.9105,-5.9037,-5.9049,-5.9053,-5.9113,-5.9136,-5.9157,-5.8887,-5.8885,-5.8884,0,0,-5.8557,-5.8583,-5.8673,-5.87,-5.874,-5.874,-5.8761,-5.8792,-5.8798,-5.8893,-5.8851,-5.8907,-5.9008,-5.9034,-5.906,-5.9226,-5.919,-5.9244,-5.9335,-5.9397,-5.9416,-5.9433,-5.949,-5.951,-5.9257,-5.9257,-5.9257,0,-5.8636,-5.8738,-5.8722,-5.88,-5.8833,-5.8787,-5.8876,-5.8902,-5.8957,-5.8979,-5.8939,-5.9062,-5.9083,-5.9199,-5.9239,-5.9263,-5.9284,-5.9239,-5.9415,-5.9432,-5.9447,-5.9501,-5.9522,-5.9263,-5.9262,-5.9262,-5.9261,0,-5.8831,-5.8902,-5.8969,-5.9025,-5.9065,-5.9148,-5.9143,-5.9185,-5.9167,-5.917,-5.9265,-5.9289,-5.9345,-5.9372,-5.9355,-5.9484,-5.9461,-5.9419,-5.9346,-5.9477,-5.9527,-5.9547,-5.9272,-5.927,-5.9268,-5.9266,0,0,-5.9043,-5.9089,-5.9113,-5.9137,-5.9177,-5.923,-5.9309,-5.9366,-5.9402,-5.9441,-5.9504,-5.959,-5.955,-5.958,-5.9565,-5.9621,-5.9747,-5.9571,-5.9571,-5.9601,-5.9888,-5.9919,-5.9943,-5.9724,-5.9728,-5.9731,-5.9885,0,-5.9201,-5.9341,-5.9329,-5.946,-5.9524,-5.948,-5.9549,-5.9579,-5.9584,-5.9636,-5.964,-5.97,-5.9645,-5.9662,-5.9715,-5.9721,-5.9804,-5.971,-5.9781,-5.9784,-5.9772,-5.9969,-6.0002,-6.0146,-5.9904,-5.9908,-5.991,0,-5.9403,-5.945,-5.9589,-5.9617,-5.9643,-5.9706,-5.9755,-5.9807,-5.9839,-5.9838,-5.9872,-5.9847,-5.9924,-5.9851,-5.9954,-5.989,-5.9919,-5.9926,-5.9931,-5.9935,-5.9854,-5.9977,-6.0191,-6.0212,-5.9941,-5.9939,-5.9936,0,-5.9541,-5.9639,-5.9734,-5.9756,-5.9792,-5.9836,-5.9852,-5.9881,-5.9915,-5.9958,-5.9979,-6.003,-6.0057,-6.0096,-6.0084,-6.0033,-6.019,-6.0116,-6.0188,-6.0189,-6.0222,-6.022,-6.0442,-6.0244,-6.0244,-6.0243,-6.0243,0,-5.9717,-5.9803,-5.9796,-5.9854,-5.9948,-5.9932,-6.0024,-6.0035,-6.006,-6.0117,-6.0083,-6.0137,-6.0119,-6.0171,-6.0163,-6.0248,-6.0261,-6.0261,-6.0257,-6.0263,-6.0263,-6.028,-6.0268,-6.0249,-6.0248,-6.0247,-6.0246,0,-5.9886,-5.9886,-5.9986,-6.0012,-6.002,-6.0088,-6.0109,-6.0162,-6.0163,-6.0236,-6.0252,-6.0254,-6.0314,-6.0306,-6.0373,-6.0367,-6.0473,-6.0458,-6.0462,-6.0458,-6.053,-6.0522,-6.0769,-6.0799,-6.0584,-6.0586,-6.0588,0,-5.9998,-6.0063,-6.0096,-6.0133,-6.0153,-6.0212,-6.0247,-6.0233,-6.027,-6.0311,-6.0359,-6.0415,-6.046,-6.0557,-6.0562,-6.0612,-6.0597,-6.068,-6.0604,-6.0607,-6.0595,-6.0591,-6.0596,-6.0694,-6.0697,-6.0699,-6.07,0,-6.0195,-6.0191,-6.0243,-6.0296,-6.0339,-6.0379,-6.0415,-6.0446,-6.0435,-6.0478,-6.054,-6.0574,-6.0642,-6.0698,-6.0744,-6.0758,-6.0727,-6.0724,-6.0743,-6.0749,-6.0748,-6.0747,-6.0501,-6.0718,-6.0716,-6.0715,-6.0714,-6.0713,-6.0337,-6.0391,-6.0423,-6.0482,-6.0508,-6.0542,-6.0593,-6.0601,-6.0653,-6.0708,-6.0696,-6.0764,-6.0792,-6.0852,-6.0871,-6.0922,-6.0892,-6.092,-6.0926,-6.0933,-6.094,-6.0741,-6.0931,-6.093,-6.093,-6.0929,-6.0929,0,-6.0529,-6.0547,-6.0602,-6.0654,-6.07,-6.0668,-6.0706,-6.0746,-6.0807,-6.0837,-6.0881,-6.095,-6.1004,-6.1014,-6.1064,-6.1103,-6.109,-6.1117,-6.1112,-6.1116,-6.0966,-6.0944,-6.1127,-6.1127,-6.1127,-6.1126,-6.1126,-6.1126,-6.0635,-6.0725,-6.0725,-6.0827,-6.0843,-6.0911,-6.0935,-6.0966,-6.0989,-6.1068,-6.1113,-6.112,-6.1141,-6.1192,-6.1239,-6.124,-6.1259,-6.1291,-6.1287,-6.1146,-6.1127,-6.1108,-6.1086,-6.1296,-6.1296,-6.1431,-6.1433,-6.1434]}]]